Asheville, NC

9:07 PM EDT on May 27, 2017 (GMT -0400)
Asheville Regional

Weather History for KAVL - May, 2013

Change the Weather History Date:

Sunday, May 5, 2013

  Actual Average Record
Temperature  
Mean Temperature 49 °F 60 °F  
Max Temperature 51 °F 72 °F 90 °F (1950)
Min Temperature 46 °F 48 °F 32 °F (1997)
Degree Days  
Heating Degree Days 16 5  
Month to date heating degree days 50 28  
Since 1 July heating degree days 3988 4100  
Cooling Degree Days 0 1  
Month to date cooling degree days 0 4  
Year to date cooling degree days 5 12  
Moisture  
Dew Point 47 °F    
Average Humidity 92    
Maximum Humidity 100    
Minimum Humidity 83    
Precipitation  
Precipitation 3.40 in 0.11 in 3.40 in (2013)
Month to date precipitation 3.97 0.57  
Year to date precipitation 25.31 15.16  
Snow  
Snow 0.00 in 0.00 in 0.00 in ()
Month to date snowfall 0.0 0.0  
Since 1 July snowfall 0.5 9.9  
Snow Depth 0.00 in    
Sea Level Pressure  
Sea Level Pressure 29.88 in    
Wind  
Wind Speed 4 mph (South)    
Max Wind Speed 14 mph    
Max Gust Speed 24 mph    
Visibility 4 miles    
Events Rain    
T = Trace of Precipitation, MM = Missing Value Source: NWS Daily Summary

Daily Weather History Graph

Daily Weather History Graph

Search for Another Location

Airport or City:

Trip Planner

Search our weather history database for the weather conditions in past years. The results will help you decide how hot, cold, wet, or windy it might be!

Date:

Astronomy

May. 05, 2013 Rise Set
Actual Time 6:34 AM EDT 8:19 PM EDT
Civil Twilight 6:06 AM EDT 8:47 PM EDT
Nautical Twilight 5:33 AM EDT 9:20 PM EDT
Astronomical Twilight 4:58 AM EDT 9:56 PM EDT
Moon 3:55 AM EDT (5/5) 4:26 PM EDT (5/5)
Length of Visible Light 14h 40m
Length of Day
13h 45m
Waning Crescent, 18% of the Moon is Illuminated
May 5
Waning Crescent
May 9
New
May 18
First Quarter
May 25
Full
May 31
Last Quarter

Hourly Weather History & Observations

Time (EDT) Temp. Windchill Dew Point Humidity Pressure Visibility Wind Dir Wind Speed Gust Speed Precip Events Conditions
12:54 AM 51.1 °F - 46.9 °F 86% 29.97 in 9.0 mi Variable 3.5 mph - 0.01 in Rain Rain
1:54 AM 50.0 °F - 46.9 °F 89% 29.93 in 10.0 mi Variable 5.8 mph - 0.14 in Rain Light Rain
2:54 AM 50.0 °F - 46.9 °F 89% 29.91 in 10.0 mi Calm Calm - 0.05 in Rain Light Rain
3:54 AM 50.0 °F - 48.0 °F 93% 29.91 in 3.0 mi Calm Calm - 0.17 in Rain Heavy Rain
4:54 AM 50.0 °F - 48.0 °F 93% 29.87 in 4.0 mi North 5.8 mph - 0.18 in Rain Heavy Rain
5:54 AM 50.0 °F - 46.0 °F 86% 29.85 in 10.0 mi Variable 4.6 mph - 0.06 in   Overcast
6:54 AM 48.0 °F - 45.0 °F 89% 29.87 in 4.0 mi ENE 9.2 mph - 0.05 in Rain Rain
7:44 AM 46.4 °F 45.2 °F 44.6 °F 93% 29.91 in 2.5 mi Variable 3.5 mph - 0.11 in Rain Heavy Rain
7:54 AM 46.9 °F - 46.0 °F 97% 29.90 in 2.5 mi Variable 4.6 mph - 0.15 in Rain Rain
8:06 AM 46.4 °F 45.2 °F 44.6 °F 93% 29.92 in 3.0 mi NNE 3.5 mph - 0.04 in Rain Heavy Rain
8:10 AM 46.4 °F - 44.6 °F 93% 29.91 in 2.5 mi Calm Calm - 0.05 in Rain Heavy Rain
8:19 AM 46.4 °F - 44.6 °F 93% 29.92 in 2.5 mi Calm Calm - 0.09 in Rain Heavy Rain
8:27 AM 46.4 °F 43.5 °F 44.6 °F 93% 29.91 in 2.5 mi NNW 5.8 mph - 0.12 in Rain Heavy Rain
8:54 AM 46.0 °F 42.5 °F 44.1 °F 93% 29.90 in 3.0 mi NNW 6.9 mph - 0.23 in Rain Rain
9:13 AM 46.4 °F 45.2 °F 44.6 °F 93% 29.92 in 2.5 mi Variable 3.5 mph - 0.06 in Rain Heavy Rain
9:21 AM 46.4 °F 44.3 °F 44.6 °F 93% 29.93 in 3.0 mi SW 4.6 mph - 0.08 in Rain Rain
9:32 AM 46.4 °F - 44.6 °F 93% 29.92 in 2.5 mi Calm Calm - 0.12 in Rain Heavy Rain
9:54 AM 46.0 °F 44.8 °F 45.0 °F 96% 29.91 in 2.0 mi West 3.5 mph - 0.22 in Rain Heavy Rain
10:01 AM 46.4 °F 44.3 °F 44.6 °F 93% 29.92 in 2.0 mi NW 4.6 mph - 0.03 in Rain Heavy Rain
10:06 AM 46.4 °F 45.2 °F 44.6 °F 93% 29.92 in 1.8 mi WSW 3.5 mph - 0.06 in Rain Heavy Rain
10:15 AM 46.4 °F - 44.6 °F 93% 29.93 in 2.0 mi Calm Calm - 0.10 in Rain Heavy Rain
10:17 AM 46.4 °F - 44.6 °F 93% 29.93 in 2.0 mi Calm Calm - 0.12 in Rain Heavy Rain
10:32 AM 46.4 °F 45.2 °F 44.6 °F 93% 29.93 in 2.0 mi Variable 3.5 mph - 0.19 in Rain Heavy Rain
10:34 AM 46.4 °F - 44.6 °F 93% 29.93 in 1.8 mi Calm Calm - 0.20 in Rain Heavy Rain
10:54 AM 46.9 °F - 45.0 °F 93% 29.91 in 2.5 mi Calm Calm - 0.31 in Rain Heavy Rain
11:13 AM 48.2 °F - 44.6 °F 87% 29.92 in 3.0 mi Calm Calm - 0.07 in Rain Rain
11:54 AM 46.9 °F - 45.0 °F 93% 29.90 in 2.5 mi Variable 4.6 mph - 0.20 in Rain Heavy Rain
12:04 PM 48.2 °F - 44.6 °F 87% 29.92 in 3.0 mi SSE 4.6 mph - 0.04 in Rain Heavy Rain
12:54 PM 48.0 °F - 46.0 °F 93% 29.90 in 2.5 mi Variable 5.8 mph - 0.20 in Rain Rain
1:03 PM 48.2 °F - 46.4 °F 93% 29.91 in 2.0 mi ESE 3.5 mph - 0.04 in Rain Rain
1:07 PM 48.2 °F - 46.4 °F 93% 29.92 in 3.0 mi ESE 5.8 mph - 0.05 in Rain Rain
1:33 PM 48.2 °F - 46.4 °F 93% 29.89 in 5.0 mi Calm Calm - 0.08 in Rain Light Rain
1:54 PM 48.2 °F - 46.4 °F 93% 29.88 in 6.0 mi East 8.1 mph - N/A Rain Light Rain
2:09 PM 50.0 °F - 46.4 °F 87% 29.88 in 4.0 mi SSE 4.6 mph - 0.02 in Rain Light Rain
2:30 PM 50.0 °F - 48.2 °F 94% 29.88 in 1.8 mi Variable 5.8 mph - 0.08 in Rain Heavy Rain
2:40 PM 50.0 °F - 48.2 °F 94% 29.88 in 3.0 mi Variable 6.9 mph - 0.11 in Rain Light Rain
2:51 PM 50.0 °F - 48.2 °F 94% 29.88 in 6.0 mi Variable 3.5 mph - 0.12 in Rain Light Rain
2:54 PM 50.0 °F - 48.0 °F 93% 29.86 in 7.0 mi Variable 5.8 mph - 0.12 in Rain Light Rain
3:16 PM 48.2 °F - 46.4 °F 93% 29.88 in 3.0 mi SSE 8.1 mph - 0.03 in Rain Rain
3:23 PM 50.0 °F - 46.4 °F 87% 29.88 in 2.0 mi Variable 4.6 mph - 0.05 in Rain Rain
3:31 PM 50.0 °F - 48.2 °F 94% 29.88 in 3.0 mi SSE 9.2 mph 19.6 mph 0.06 in Rain Light Rain
3:36 PM 50.0 °F - 48.2 °F 94% 29.88 in 2.0 mi SSE 10.4 mph 19.6 mph 0.06 in Rain Light Rain
3:54 PM 51.1 °F - 48.0 °F 89% 29.84 in 2.0 mi Variable 3.5 mph - 0.07 in Rain Light Rain
4:22 PM 51.8 °F - 46.4 °F 82% 29.85 in 2.0 mi Variable 6.9 mph - 0.00 in Rain Light Rain
4:40 PM 51.8 °F - 46.4 °F 82% 29.85 in 3.0 mi ESE 10.4 mph 18.4 mph 0.00 in   Overcast
4:54 PM 51.1 °F - 46.9 °F 86% 29.83 in 3.0 mi ESE 11.5 mph 24.2 mph 0.00 in   Overcast
5:16 PM 51.8 °F - 46.4 °F 82% 29.85 in 10.0 mi ESE 11.5 mph 20.7 mph 0.00 in Rain Light Rain
5:54 PM 50.0 °F - 48.0 °F 93% 29.82 in 2.5 mi Calm Calm - 0.03 in Rain Heavy Rain
6:08 PM 50.0 °F - 48.2 °F 94% 29.84 in 5.0 mi Calm Calm - 0.04 in Rain Light Rain
6:20 PM 50.0 °F - 46.4 °F 87% 29.85 in 5.0 mi Calm Calm - 0.06 in Rain Light Rain
6:34 PM 48.2 °F - 48.2 °F 100% 29.85 in 3.0 mi WNW 4.6 mph - 0.06 in Rain Rain
6:39 PM 48.2 °F - 48.2 °F 100% 29.85 in 1.8 mi Calm Calm - 0.09 in Rain Heavy Rain
6:54 PM 48.9 °F - 48.0 °F 97% 29.83 in 1.5 mi Calm Calm - 0.17 in Rain Heavy Rain
7:11 PM 48.2 °F - 48.2 °F 100% 29.85 in 2.0 mi South 3.5 mph - 0.06 in Rain Heavy Rain
7:22 PM 48.2 °F - 48.2 °F 100% 29.84 in 1.8 mi South 5.8 mph - 0.10 in Rain Rain
7:24 PM 48.2 °F - 48.2 °F 100% 29.84 in 2.0 mi South 5.8 mph - 0.11 in Rain Rain
7:45 PM 48.2 °F - 48.2 °F 100% 29.86 in 2.0 mi South 10.4 mph - 0.16 in Rain Light Rain
7:50 PM 48.2 °F - 48.2 °F 100% 29.85 in 3.0 mi South 5.8 mph - 0.17 in Rain Light Rain
7:54 PM 48.9 °F - 48.0 °F 97% 29.85 in 3.0 mi South 9.2 mph - 0.18 in Rain Rain
8:10 PM 48.2 °F - 48.2 °F 100% 29.86 in 2.5 mi SSE 5.8 mph - 0.04 in Rain Rain
8:16 PM 48.2 °F - 48.2 °F 100% 29.86 in 1.8 mi South 6.9 mph - 0.08 in Rain Heavy Rain
8:23 PM 48.2 °F - 48.2 °F 100% 29.86 in 3.0 mi SSW 5.8 mph - 0.11 in Rain Rain
8:27 PM 48.2 °F - 48.2 °F 100% 29.86 in 4.0 mi SSW 5.8 mph - 0.12 in Rain Rain
8:32 PM 48.2 °F - 48.2 °F 100% 29.85 in 2.5 mi SSW 4.6 mph - 0.15 in Rain Heavy Rain
8:38 PM 48.2 °F - 48.2 °F 100% 29.86 in 3.0 mi SSW 4.6 mph - 0.17 in Rain Rain
8:54 PM 48.9 °F - 48.0 °F 97% 29.84 in 2.5 mi SSW 5.8 mph - 0.28 in Rain Heavy Rain
9:22 PM 48.2 °F - 48.2 °F 100% 29.85 in 3.0 mi Calm Calm - 0.18 in Rain Rain
9:51 PM 48.2 °F - 48.2 °F 100% 29.85 in 4.0 mi Calm Calm - 0.24 in Rain Rain
9:54 PM 48.9 °F - 48.0 °F 97% 29.83 in 3.0 mi Calm Calm - 0.25 in Rain Heavy Rain
10:12 PM 48.2 °F - 48.2 °F 100% 29.85 in 3.0 mi Calm Calm - 0.09 in Rain Rain
10:35 PM 48.2 °F - 48.2 °F 100% 29.85 in 3.0 mi Calm Calm - 0.17 in Rain Rain
10:44 PM 48.2 °F - 48.2 °F 100% 29.84 in 4.0 mi Calm Calm - 0.20 in Rain Rain
10:54 PM 48.9 °F - 48.0 °F 97% 29.83 in 8.0 mi Calm Calm - 0.20 in Rain Light Rain
11:03 PM 48.2 °F - 48.2 °F 100% 29.84 in 6.0 mi Calm Calm - 0.00 in Rain Rain
11:31 PM 50.0 °F - 48.2 °F 94% 29.84 in 6.0 mi Calm Calm - 0.03 in Rain Light Rain
11:34 PM 50.0 °F - 48.2 °F 94% 29.84 in 7.0 mi Calm Calm - 0.03 in Rain Light Rain
11:54 PM 50.0 °F - 48.9 °F 96% 29.82 in 10.0 mi SE 3.5 mph - 0.04 in   Overcast